Decorah, IA

2:17 AM CDT on April 30, 2017 (GMT -0500)
Decorah Municipal

Weather History for KDEH - February, 2013

Change the Weather History Date:

Friday, February 15, 2013

  Actual Average Record
Temperature  
Mean Temperature 16 °F -  
Max Temperature 21 °F 29 °F 55 °F (1999)
Min Temperature 10 °F 12 °F -19 °F (1951)
Degree Days  
Heating Degree Days 50    
Moisture  
Dew Point 5 °F    
Average Humidity 63    
Maximum Humidity 79    
Minimum Humidity 54    
Precipitation  
Precipitation 0.00 in - - ()
Sea Level Pressure  
Sea Level Pressure 30.19 in    
Wind  
Wind Speed 9 mph (NW)    
Max Wind Speed 17 mph    
Max Gust Speed 23 mph    
Visibility 10 miles    
Events      
Averages and records for this station are not official NWS values.
T = Trace of Precipitation, MM = Missing Value Source: NWS Daily Summary

Daily Weather History Graph

Daily Weather History Graph

Search for Another Location

Airport or City:

Trip Planner

Search our weather history database for the weather conditions in past years. The results will help you decide how hot, cold, wet, or windy it might be!

Date:

Astronomy

Feb. 15, 2013 Rise Set
Actual Time 7:04 AM CST 5:38 PM CST
Civil Twilight 6:35 AM CST 6:07 PM CST
Nautical Twilight 6:01 AM CST 6:40 PM CST
Astronomical Twilight 5:28 AM CST 7:13 PM CST
Moon 9:29 AM CST (2/15) 11:51 PM CST (2/15)
Length of Visible Light 11h 32m
Length of Day
10h 33m
Waxing Crescent, 30% of the Moon is Illuminated
Feb 15
Waxing Crescent
Feb 17
First Quarter
Feb 25
Full
Mar 4
Last Quarter
Mar 11
New

Hourly Weather History & Observations

Time (CST) Temp. Windchill Dew Point Humidity Pressure Visibility Wind Dir Wind Speed Gust Speed Precip Events Conditions
12:15 AM 19.4 °F 7.2 °F 5.0 °F 54% 30.09 in 10.0 mi North 11.5 mph 17.3 mph N/A   Clear
12:35 AM 19.4 °F 8.6 °F 5.0 °F 54% 30.10 in 10.0 mi NNW 9.2 mph - N/A   Clear
12:55 AM 19.4 °F 8.6 °F 5.0 °F 54% 30.10 in 10.0 mi NNW 9.2 mph - N/A   Clear
1:15 AM 19.4 °F 7.9 °F 5.0 °F 54% 30.11 in 10.0 mi NNW 10.4 mph - N/A   Clear
1:35 AM 19.4 °F 9.5 °F 5.0 °F 54% 30.11 in 10.0 mi NNW 8.1 mph 15.0 mph N/A   Clear
1:55 AM 17.6 °F 6.4 °F 5.0 °F 58% 30.12 in 10.0 mi NW 9.2 mph - N/A   Clear
2:15 AM 17.6 °F 5.7 °F 5.0 °F 58% 30.13 in 10.0 mi NNW 10.4 mph - N/A   Clear
2:55 AM 17.6 °F 9.3 °F 5.0 °F 58% 30.14 in 10.0 mi NW 5.8 mph - N/A   Scattered Clouds
3:15 AM 17.6 °F 8.2 °F 5.0 °F 58% 30.15 in 10.0 mi NW 6.9 mph - N/A   Clear
3:35 AM 17.6 °F 8.2 °F 5.0 °F 58% 30.15 in 10.0 mi NW 6.9 mph - N/A   Clear
3:55 AM 15.8 °F 6.1 °F 5.0 °F 62% 30.15 in 10.0 mi NW 6.9 mph - N/A   Clear
4:15 AM 15.8 °F 6.1 °F 5.0 °F 62% 30.15 in 10.0 mi NW 6.9 mph - N/A   Clear
4:35 AM 15.8 °F 6.1 °F 6.8 °F 68% 30.15 in 10.0 mi NW 6.9 mph - N/A   Clear
4:55 AM 15.8 °F 7.2 °F 6.8 °F 68% 30.16 in 10.0 mi NW 5.8 mph - N/A   Clear
5:15 AM 15.8 °F 10.2 °F 5.0 °F 62% 30.16 in 10.0 mi West 3.5 mph - N/A   Clear
5:35 AM 15.8 °F 10.2 °F 5.0 °F 62% 30.16 in 10.0 mi West 3.5 mph - N/A   Clear
5:55 AM 14.0 °F - 6.8 °F 73% 30.17 in 10.0 mi Calm Calm - N/A   Partly Cloudy
6:15 AM 14.0 °F 8.2 °F 6.8 °F 73% 30.17 in 10.0 mi WNW 3.5 mph - N/A   Scattered Clouds
6:35 AM 14.0 °F 5.1 °F 6.8 °F 73% 30.17 in 10.0 mi WNW 5.8 mph - N/A   Partly Cloudy
6:55 AM 14.0 °F 5.1 °F 8.6 °F 79% 30.18 in 10.0 mi West 5.8 mph - N/A   Mostly Cloudy
7:15 AM 14.0 °F 5.1 °F 6.8 °F 73% 30.18 in 10.0 mi WNW 5.8 mph 12.7 mph N/A   Overcast
7:35 AM 14.0 °F 3.9 °F 6.8 °F 73% 30.18 in 10.0 mi WNW 6.9 mph 13.8 mph N/A   Scattered Clouds
7:55 AM 14.0 °F 2.0 °F 5.0 °F 67% 30.19 in 10.0 mi WNW 9.2 mph - N/A   Clear
8:15 AM 14.0 °F 1.2 °F 3.2 °F 62% 30.20 in 10.0 mi WNW 10.4 mph - N/A   Partly Cloudy
8:35 AM 14.0 °F 2.0 °F 3.2 °F 62% 30.20 in 10.0 mi WNW 9.2 mph 16.1 mph N/A   Mostly Cloudy
8:55 AM 14.0 °F 3.9 °F 3.2 °F 62% 30.21 in 10.0 mi Variable 6.9 mph 15.0 mph N/A   Overcast
9:15 AM 14.0 °F 3.9 °F 5.0 °F 67% 30.21 in 10.0 mi Variable 6.9 mph - N/A   Overcast
9:35 AM 14.0 °F 2.9 °F 5.0 °F 67% 30.21 in 10.0 mi NW 8.1 mph 15.0 mph N/A   Mostly Cloudy
9:55 AM 14.0 °F 1.2 °F 5.0 °F 67% 30.21 in 10.0 mi NW 10.4 mph - N/A   Partly Cloudy
10:15 AM 14.0 °F 2.9 °F 3.2 °F 62% 30.21 in 10.0 mi NW 8.1 mph 16.1 mph N/A   Clear
10:35 AM 14.0 °F -0.2 °F 5.0 °F 67% 30.21 in 10.0 mi NW 12.7 mph 19.6 mph N/A   Clear
10:55 AM 15.8 °F 3.4 °F 5.0 °F 62% 30.21 in 10.0 mi NW 10.4 mph 17.3 mph N/A   Clear
11:15 AM 15.8 °F 2.7 °F 3.2 °F 58% 30.21 in 10.0 mi WNW 11.5 mph 17.3 mph N/A   Clear
11:55 AM 17.6 °F 3.7 °F 6.8 °F 63% 30.21 in 10.0 mi NNW 13.8 mph - N/A   Clear
12:15 PM 17.6 °F 3.7 °F 5.0 °F 58% 30.21 in 10.0 mi NW 13.8 mph - N/A   Clear
12:35 PM 17.6 °F 5.0 °F 6.8 °F 63% 30.20 in 10.0 mi NW 11.5 mph - N/A   Clear
12:55 PM 19.4 °F 6.6 °F 6.8 °F 58% 30.20 in 10.0 mi NW 12.7 mph - N/A   Clear
1:15 PM 19.4 °F 7.2 °F 6.8 °F 58% 30.20 in 10.0 mi NNW 11.5 mph 18.4 mph N/A   Clear
1:35 PM 19.4 °F 7.2 °F 6.8 °F 58% 30.19 in 10.0 mi NW 11.5 mph - N/A   Clear
1:55 PM 19.4 °F 6.0 °F 6.8 °F 58% 30.19 in 10.0 mi NNW 13.8 mph 23.0 mph N/A   Clear
2:15 PM 19.4 °F 6.0 °F 6.8 °F 58% 30.19 in 10.0 mi NNW 13.8 mph - N/A   Clear
2:35 PM 21.2 °F 10.9 °F 8.6 °F 58% 30.19 in 10.0 mi WNW 9.2 mph 17.3 mph N/A   Partly Cloudy
2:55 PM 21.2 °F 9.5 °F 6.8 °F 54% 30.19 in 10.0 mi West 11.5 mph 18.4 mph N/A   Scattered Clouds
3:15 PM 19.4 °F 5.5 °F 5.0 °F 54% 30.20 in 10.0 mi WNW 15.0 mph 23.0 mph N/A   Partly Cloudy
3:35 PM 19.4 °F 5.5 °F 5.0 °F 54% 30.20 in 10.0 mi NW 15.0 mph 21.9 mph N/A   Clear
3:55 PM 19.4 °F 5.0 °F 5.0 °F 54% 30.21 in 10.0 mi NW 16.1 mph - N/A   Partly Cloudy
4:15 PM 19.4 °F 5.5 °F 5.0 °F 54% 30.21 in 10.0 mi NW 15.0 mph 23.0 mph N/A   Partly Cloudy
4:35 PM 17.6 °F 2.2 °F 5.0 °F 58% 30.21 in 10.0 mi NNW 17.3 mph - N/A   Partly Cloudy
4:55 PM 17.6 °F 5.0 °F 5.0 °F 58% 30.21 in 10.0 mi WNW 11.5 mph 18.4 mph N/A   Scattered Clouds
5:15 PM 17.6 °F 6.4 °F 5.0 °F 58% 30.22 in 10.0 mi NW 9.2 mph - N/A   Partly Cloudy
5:35 PM 15.8 °F 3.4 °F 5.0 °F 62% 30.22 in 10.0 mi NW 10.4 mph - N/A   Scattered Clouds
6:15 PM 15.8 °F 5.1 °F 5.0 °F 62% 30.23 in 10.0 mi NW 8.1 mph - N/A   Scattered Clouds
6:35 PM 15.8 °F 5.1 °F 5.0 °F 62% 30.23 in - NW 8.1 mph - N/A   Partly Cloudy
6:55 PM 14.0 °F 2.0 °F 5.0 °F 67% 30.23 in 10.0 mi NW 9.2 mph - N/A   Clear
7:15 PM 14.0 °F 2.0 °F 5.0 °F 67% 30.23 in 10.0 mi NW 9.2 mph - N/A   Clear
7:35 PM 14.0 °F -0.2 °F 5.0 °F 67% 30.23 in 10.0 mi NW 12.7 mph - N/A   Clear
7:55 PM 14.0 °F 2.9 °F 5.0 °F 67% 30.23 in 10.0 mi NW 8.1 mph - N/A   Clear
8:15 PM 14.0 °F 1.2 °F 3.2 °F 62% 30.23 in 10.0 mi NW 10.4 mph - N/A   Clear
8:35 PM 14.0 °F 2.0 °F 3.2 °F 62% 30.23 in 10.0 mi NW 9.2 mph - N/A   Clear
8:55 PM 12.2 °F -1.8 °F 3.2 °F 67% 30.23 in 10.0 mi NW 11.5 mph - N/A   Clear
9:15 PM 12.2 °F 0.7 °F 3.2 °F 67% 30.24 in 10.0 mi NW 8.1 mph - N/A   Clear
9:35 PM 12.2 °F -0.2 °F 3.2 °F 67% 30.24 in 10.0 mi NW 9.2 mph 17.3 mph N/A   Clear
9:55 PM 12.2 °F -0.2 °F 3.2 °F 67% 30.23 in 10.0 mi NW 9.2 mph - N/A   Clear
10:15 PM 12.2 °F 0.7 °F 3.2 °F 67% 30.23 in 10.0 mi NW 8.1 mph - N/A   Clear
10:35 PM 12.2 °F 0.7 °F 3.2 °F 67% 30.23 in 10.0 mi NW 8.1 mph - N/A   Clear
10:55 PM 12.2 °F 4.3 °F 3.2 °F 67% 30.23 in 10.0 mi NW 4.6 mph - N/A   Clear
11:15 PM 10.4 °F 0.8 °F 3.2 °F 73% 30.23 in 10.0 mi NW 5.8 mph - N/A   Clear
11:35 PM 10.4 °F 0.8 °F 3.2 °F 73% 30.22 in 10.0 mi NW 5.8 mph - N/A   Clear
11:55 PM 10.4 °F 2.2 °F 3.2 °F 73% 30.22 in 10.0 mi WNW 4.6 mph - N/A   Clear